Regional Weather Roundup
Issued by NWS

Home | Current Version | Previous Version | Graphics & Text | Print | Product List | Glossary On
Versions: 1 2 3 4 5 6 7 8 9 10 11 12 13 14 15 16 17 18 19 20 21 22 23 24 25 26 27 28 29 30 31 32 33 34 35 36 37 38 39 40 41 42 43 44 45 46 47 48 49 50
000
ASUS43 KTOP 071808
RWRKS

WEATHER ROUNDUP FOR KANSAS
NATIONAL WEATHER SERVICE GOODLAND KS
1200 PM CST SUN FEB 07 2016

NOTE:  "FAIR" INDICATES FEW OR NO CLOUDS BELOW 12,000 FEET WITH NO
SIGNIFICANT WEATHER AND/OR OBSTRUCTIONS TO VISIBILITY.

KSZ001>006-013>018-027>032-041>047-071900-
NORTHWEST KANSAS

CITY           SKY/WX    TMP DP  RH WIND       PRES   REMARKS
GOODLAND       SUNNY     35  24  64 NW24G31   30.31R WCI  23
6HR MIN TEMP:  24; 6HR MAX TEMP:  35;

HAYS           CLOUDY    45  21  39 NW18      30.25S
HILL CITY      CLOUDY    41  26  55 NW17      30.26R
6HR MIN TEMP:  33; 6HR MAX TEMP:  42;

RUSSELL        CLOUDY    42  27  55 NW15      30.22S
6HR MIN TEMP:  35; 6HR MAX TEMP:  44;

$$

KSZ061>065-074>080-084>089-071900-
SOUTHWEST KANSAS

CITY           SKY/WX    TMP DP  RH WIND       PRES   REMARKS
DODGE CITY     SUNNY     47  18  31 N21G28    30.28R
6HR MIN TEMP:  26; 6HR MAX TEMP:  47;

ELKHART          N/A     50  22  33 N13         N/A
GARDEN CITY    SUNNY     46  20  35 N23G29    30.30R
6HR MIN TEMP:  31; 6HR MAX TEMP:  46;

GREAT BEND     SUNNY     48  27  43 NW16      30.25R
LIBERAL        SUNNY     52  27  37 N15       30.29R
PRATT          SUNNY     48  24  39 N16G24    30.23S
6HR MIN TEMP:  31; 6HR MAX TEMP:  48;

$$

KSZ066>073-081>083-090>101-071900-
SOUTHEAST KANSAS

CITY           SKY/WX    TMP DP  RH WIND       PRES   REMARKS
CHANUTE        PTSUNNY   49  29  46 NW10      30.12S
6HR MIN TEMP:  35; 6HR MAX TEMP:  49;

COFFEYVILLE    MOSUNNY   49  29  46 NW13      30.17R
6HR MIN TEMP:  30; 6HR MAX TEMP:  49;

HUTCHINSON     MOSUNNY   53  21  28 NW17      30.20S
6HR MIN TEMP:  33; 6HR MAX TEMP:  54;

MEDICINE LODGE   N/A     53  23  31 N17G26    30.22R
NEWTON         PTSUNNY   50  21  32 N22G28    30.19S
PARSONS        MOSUNNY   49  30  48 W10       30.15R
6HR MIN TEMP:  33; 6HR MAX TEMP:  49;

WICHITA INTL   MOSUNNY   54  19  25 N20G26    30.19S
6HR MIN TEMP:  31; 6HR MAX TEMP:  54;

WICHITA JABRA  PTSUNNY   53  19  26 N20       30.17F
6HR MIN TEMP:  34; 6HR MAX TEMP:  54;

WICHITA MCCONL SUNNY     52  21  30 N18G26    30.17F
WINFIELD       CLOUDY    51  27  39 N17       30.19R
6HR MIN TEMP:  30; 6HR MAX TEMP:  51;

$$

KSZ007>012-019>026-033>040-048>060-102>105-071900-
NORTHEAST KANSAS

CITY           SKY/WX    TMP DP  RH WIND       PRES   REMARKS
CONCORDIA      PTSUNNY   46  25  43 NW15G29   30.15F
6HR MIN TEMP:  35; 6HR MAX TEMP:  46;

EMPORIA        CLOUDY    49  22  34 NW18G25   30.13S
6HR MIN TEMP:  37; 6HR MAX TEMP:  50;

LAWRENCE       CLOUDY    50  23  34 NW18      30.09S
6HR MIN TEMP:  34; 6HR MAX TEMP:  51;

MANHATTAN      CLOUDY    49  26  41 NW9G17    30.14F
6HR MIN TEMP:  32; 6HR MAX TEMP:  49;

MARYSVILLE     MOSUNNY   46  28  49 NW23G32   30.10F
OLATHE IND     CLOUDY    49  24  37 NW18      30.07S
6HR MIN TEMP:  37; 6HR MAX TEMP:  49;

OLATHE EXE     CLOUDY    49  23  36 NW15G26   30.05F
6HR MIN TEMP:  37; 6HR MAX TEMP:  49; 6HR PCP: TRACE;

SALINA         MOSUNNY   54  22  28 N22G31    30.19R
6HR MIN TEMP:  36; 6HR MAX TEMP:  55;

TOPEKA BILLARD CLOUDY    52  23  32 NW16G23   30.11S
6HR MIN TEMP:  38; 6HR MAX TEMP:  52;

TOPEKA FORBES  CLOUDY    51  25  36 NW17G28   30.10S
6HR MIN TEMP:  39; 6HR MAX TEMP:  51;

$$



USA.gov is the U.S. government's official web portal to all federal, state and local government web resources and services.